Terminal Aerodrome Forecast
Issued by NWS Chicago, IL

Home | Current Version | Previous Version | Graphics & Text | Print | Product List | Glossary On
Versions: 1 2 3 4 5 6 7 8 9 10 11 12 13 14 15 16 17 18 19 20 21 22 23 24 25 26 27 28 29 30 31 32 33 34 35
000
FTUS43 KLOT 212100 AAC
TAFRFD
TAF AMD
KRFD 212152Z 2122/2218 16008KT P6SM SCT035 SCT050 OVC080
     FM220600 17004KT 4SM BR SCT007 BKN040 BKN100 PROB30 2207/2210
      4SM -TSRA BR BKN050CB
     FM221000 15004KT 3SM BR SCT010 BKN030=

USA.gov is the U.S. government's official web portal to all federal, state and local government web resources and services.